Wetbulb
35.62 36.57 36.79 35.62 35.34 36.69 35.64 36.28 32.21 35.10 35.74 39.57 41.74 42.56 44.29 46.01 46.54 46.39 46.82 47.76 48.72 49.06 49.62 48.48 48.15 47.43 47.07 45.90 45.07 45.31 43.97 41.98 40.79 39.77 38.37 37.11 35.93 36.50 37.21 37.31 36.69 35.86 35.25 34.95
30.85 34.56 35.07 32.82 35.79 36.48 36.28 36.61 36.22 36.54 36.14 42.42 43.66 44.70 44.71 45.26 45.35 45.35 46.30 47.59 48.82 48.52 47.97 46.91 45.42 44.95 44.37 44.10 43.14 43.23 40.98 39.44 38.41 37.45 35.86 35.09 35.02 34.45 34.91 35.20 35.22 34.77 34.35 34.13
26.86 33.10 32.63 28.56 34.14 35.61 36.60 38.20 37.33 33.73 38.62 42.92 42.36 43.28 44.19 44.88 45.48 45.76 46.76 47.52 48.03 47.95 48.17 45.81 44.23 43.51 42.83 42.21 42.10 40.20 38.14 37.76 37.10 35.11 34.42 33.59 32.70 32.28 32.59 33.47 34.92 33.39 33.23 32.63
26.31 29.15 19.06 32.65 38.72 38.59 36.61 37.76 39.71 40.24 40.91 42.09 42.76 44.87 45.87 46.75 46.70 45.99 46.27 46.71 48.14 49.22 48.86 45.40 43.53 43.44 42.28 41.37 38.88 37.22 36.27 34.31 34.10 33.44 32.46 32.03 31.52 31.21 32.71 33.81 33.43 33.84 33.90 32.24
23.26 24.13 28.93 32.22 35.47 35.41 34.65 35.02 40.59 39.74 40.97 41.69 43.79 44.77 44.85 47.80 46.81 46.02 46.19 46.13 46.66 48.12 49.55 46.63 42.80 41.16 38.96 35.96 35.09 33.25 31.72 31.78 31.87 32.02 30.60 30.39 29.91 30.70 31.69 31.16 30.64 30.71 33.31 30.82
26.45 20.92 18.73 31.53 37.58 40.61 40.48 31.40 40.79 40.75 41.53 42.09 43.59 38.38 41.76 46.74 45.79 44.96 44.34 45.61 45.21 45.39 45.62 45.45 41.61 38.68 33.29 31.87 32.05 31.87 31.87 31.83 31.86 31.83 30.57 29.30 29.78 30.54 31.15 31.14 30.77 30.76 29.61 30.37
25.49 23.17 28.13 36.75 39.64 41.48 28.96 32.49 42.00 42.92 43.40 42.92 41.35 43.72 45.80 46.05 40.97 39.68 42.55 43.77 44.52 44.13 45.22 39.42 39.21 34.82 32.60 32.05 32.05 32.23 31.87 31.87 31.66 31.32 29.57 29.43 29.65 30.25 30.16 30.28 30.36 29.46 28.47 28.44
28.06 24.52 21.99 39.63 39.45 34.11 39.75 42.63 43.47 43.27 44.18 43.65 44.91 45.05 44.61 41.02 37.13 37.07 37.21 42.87 43.37 40.96 40.64 40.22 38.73 34.35 32.49 32.04 31.87 31.87 31.87 31.36 29.97 29.04 28.92 29.28 28.90 29.04 29.50 29.82 28.38 27.80 27.02 27.04
30.21 30.00 38.82 41.57 40.96 42.94 43.83 42.80 42.68 42.72 43.30 44.99 44.08 42.41 40.54 38.15 36.77 35.68 37.22 42.50 42.63 40.79 38.03 38.77 38.48 35.52 32.83 31.76 32.00 31.74 30.51 28.38 28.32 28.42 28.53 28.44 27.76 28.42 28.49 28.94 27.97 26.95 26.38 25.62
31.81 35.73 37.43 39.62 42.64 42.88 43.45 43.02 44.45 44.94 45.39 45.40 39.88 36.04 35.68 35.50 35.50 37.13 38.00 42.00 41.96 39.39 36.37 35.25 35.96 34.71 32.31 32.00 32.12 31.04 29.06 28.08 27.80 27.16 27.06 27.22 27.80 28.22 27.58 27.97 27.95 27.73 27.51 26.60
32.25 35.79 37.33 39.12 41.08 41.54 41.42 44.04 45.09 45.41 45.57 45.13 43.01 40.37 42.48 40.18 37.84 37.81 38.63 39.85 40.50 38.12 35.62 33.82 33.06 31.90 31.76 31.67 31.39 29.38 28.97 28.46 27.59 27.04 26.58 26.46 27.81 28.97 28.93 30.70 30.19 28.97 29.61 28.85
29.72 35.43 36.46 36.85 38.65 41.23 40.63 43.01 44.74 44.36 44.96 44.83 44.07 42.83 42.62 41.37 41.61 41.16 38.93 39.34 38.87 36.89 34.68 31.82 31.51 31.01 31.16 31.48 32.12 30.94 29.30 28.36 27.86 27.53 27.04 27.36 27.74 26.76 27.66 27.10 26.91 28.34 29.02 31.10
34.19 37.40 37.58 38.80 40.29 41.01 41.22 42.52 44.95 44.52 45.24 43.92 43.99 43.40 42.17 41.07 40.81 37.18 39.45 37.73 35.34 34.91 33.09 31.76 30.85 30.77 31.98 32.91 33.12 31.91 30.24 29.00 27.77 27.97 27.07 27.50 27.19 25.53 22.95 24.22 25.49 25.62 26.34 26.33
38.65 38.12 35.47 38.31 36.41 41.55 42.81 43.45 44.72 45.03 44.60 44.04 43.70 42.13 40.88 40.77 39.67 39.12 37.25 36.65 35.74 33.76 32.97 32.22 30.90 30.54 31.87 32.42 32.78 32.42 31.98 29.36 29.48 29.00 29.72 30.05 29.26 28.29 26.26 23.26 22.14 22.92 24.54 24.95
36.45 37.82 37.25 38.11 39.39 41.33 43.90 44.52 43.12 43.03 42.85 41.83 41.59 40.92 40.60 39.12 38.18 37.30 36.60 35.71 33.68 33.08 32.45 32.39 31.31 30.91 32.05 32.60 32.60 32.23 31.45 31.27 31.87 31.69 31.51 30.65 30.39 28.99 27.11 25.58 24.75 23.87 23.66 23.93
36.75 38.22 39.04 38.19 40.75 41.93 42.23 42.59 41.99 42.15 42.18 40.75 40.45 39.55 39.02 38.22 37.00 35.61 34.72 34.13 32.25 31.38 32.07 31.65 31.33 31.87 32.42 32.42 32.23 32.30 32.15 31.27 31.39 31.25 30.08 29.84 29.21 26.94 25.83 25.75 25.09 24.52 24.17 23.23
37.63 37.76 39.80 39.73 40.53 40.87 40.60 41.77 42.42 42.57 42.30 40.74 39.21 37.96 37.87 36.16 34.76 33.44 32.56 33.41 33.62 32.78 32.42 32.23 31.33 31.87 32.05 32.23 32.94 32.53 31.53 31.07 30.64 30.17 29.45 28.39 28.29 26.83 26.48 26.21 25.59 25.28 25.32 26.05
41.69 42.83 42.78 41.49 40.98 41.08 41.89 42.55 42.77 42.69 40.53 39.02 36.38 33.52 32.22 33.38 32.73 31.39 31.54 32.23 31.90 31.54 32.23 32.05 31.87 31.69 32.05 32.60 33.47 32.32 30.84 30.24 29.90 29.09 29.00 28.28 27.60 27.10 26.64 26.14 25.40 24.60 25.46 25.57
42.41 42.06 42.32 42.11 42.65 42.57 43.18 42.40 41.60 39.51 35.33 33.32 32.22 31.99 31.80 31.42 31.34 30.65 31.63 30.97 30.11 29.48 30.15 31.69 29.92 31.43 31.54 32.04 31.15 30.92 30.09 29.41 28.86 28.42 28.41 27.75 27.70 26.96 26.14 25.57 25.00 25.31 25.45 23.05
41.73 41.88 42.36 42.36 42.56 42.56 39.51 35.90 36.68 34.68 33.29 32.60 31.11 29.99 29.30 28.94 29.59 29.67 31.17 30.29 30.36 31.86 32.21 30.54 30.28 30.37 30.19 29.83 29.85 29.94 29.34 29.08 28.05 28.30 28.41 27.43 26.96 25.96 25.80 25.37 25.89 25.70 25.99 23.76
39.05 37.38 34.94 33.11 31.33 32.05 33.50 33.32 32.60 31.69 31.51 32.05 31.87 30.36 29.30 28.59 29.18 29.75 29.37 29.09 28.57 30.34 30.51 30.06 30.77 30.22 30.00 30.22 30.75 31.20 29.99 29.61 29.10 27.50 26.98 27.57 27.31 26.82 26.61 26.02 25.68 25.65 25.37 24.44
32.05 31.69 31.13 31.87 31.28 30.94 32.05 32.42 32.05 31.35 31.30 30.84 29.78 29.19 28.37 27.86 28.29 29.15 29.35 30.06 29.29 29.59 30.17 30.41 30.68 30.17 29.90 29.82 30.70 30.06 29.17 28.78 28.93 28.52 27.73 28.15 27.43 27.41 27.40 26.80 25.66 25.82 25.80 24.85
31.69 30.96 31.09 31.47 30.85 30.39 31.19 31.19 31.29 31.29 29.58 28.15 27.82 29.48 31.37 31.03 31.65 30.29 29.03 30.24 29.80 29.33 30.06 30.83 30.20 29.88 29.48 32.25 31.16 30.32 29.61 29.22 28.83 28.68 28.49 28.61 28.61 28.10 27.49 26.35 26.13 25.66 24.98 24.42
31.38 31.74 30.61 30.87 30.78 31.23 29.99 30.01 30.85 30.02 29.70 29.72 30.42 32.02 31.45 30.89 31.41 32.47 31.65 29.35 27.95 28.74 29.80 29.24 29.00 28.70 29.63 31.68 31.65 31.12 30.61 30.81 30.40 29.51 28.78 27.85 28.74 28.33 27.98 27.11 26.21 26.24 25.48 24.45
31.86 30.73 30.87 31.96 32.72 32.60 31.43 31.13 30.57 30.11 30.29 30.34 29.51 30.13 31.50 32.12 32.54 30.53 30.18 28.79 26.92 27.95 27.75 27.26 27.73 28.61 31.30 31.33 31.04 30.83 30.76 30.77 30.37 29.90 28.64 28.06 27.16 26.52 26.35 25.58 25.14 24.64 23.97 23.38
33.57 33.62 33.85 33.79 33.15 32.42 32.07 31.85 30.87 30.56 30.31 29.33 29.24 30.62 30.88 31.22 30.09 29.11 28.64 28.07 28.09 27.42 27.14 27.43 28.71 30.23 30.58 30.28 30.14 29.93 29.68 28.46 27.97 27.96 27.38 26.88 26.72 26.17 25.61 24.79 24.15 23.64 23.39 22.68
33.39 32.28 32.27 31.66 32.30 32.00 31.44 31.34 30.24 29.37 30.00 30.21 29.01 29.11 28.92 28.94 29.17 28.07 27.73 27.48 27.52 27.55 27.34 27.67 28.09 28.59 28.97 28.28 27.93 27.89 27.69 27.72 27.11 26.68 26.82 26.37 25.56 25.18 24.30 24.03 23.87 23.49 22.83 21.79
MSLP
1013.27 1012.84 1012.23 1011.45 1010.95 1010.02 1009.29 1009.12 1008.71 1008.02 1007.13 1006.32 1005.64 1005.32 1005.05 1004.98 1005.29 1005.65 1005.80 1006.00 1006.85 1007.78 1008.20 1008.72 1009.04 1010.02 1010.96 1011.86 1012.65 1013.26 1013.90 1014.76 1015.53 1016.03 1017.04 1018.09 1019.16 1020.06 1020.49 1021.11 1021.47 1021.48 1022.01 1022.79
1014.09 1013.92 1013.38 1012.16 1010.61 1009.29 1009.18 1008.75 1008.37 1007.83 1006.77 1006.42 1006.06 1005.60 1005.16 1005.07 1005.12 1005.42 1005.70 1005.94 1006.71 1007.80 1008.46 1008.95 1009.61 1010.22 1010.85 1011.79 1012.65 1013.40 1014.32 1015.36 1016.33 1016.97 1017.21 1018.68 1019.55 1020.27 1021.17 1021.52 1022.18 1022.01 1022.21 1023.32
1013.26 1013.24 1012.54 1011.43 1009.32 1008.74 1008.09 1007.91 1007.49 1006.87 1006.51 1006.11 1005.40 1004.80 1004.90 1005.07 1005.32 1005.78 1006.06 1006.60 1007.05 1007.38 1008.21 1009.06 1009.39 1010.05 1010.86 1011.61 1012.55 1013.62 1014.82 1015.62 1016.62 1017.33 1017.60 1019.19 1020.41 1020.99 1021.51 1022.00 1022.15 1022.04 1022.90 1023.96
1013.92 1013.50 1011.94 1009.48 1008.50 1007.76 1007.09 1006.43 1005.87 1005.11 1004.78 1004.66 1004.34 1004.43 1004.97 1005.41 1005.85 1006.79 1007.21 1007.61 1007.57 1007.58 1008.20 1009.36 1009.87 1010.27 1011.02 1011.80 1012.72 1013.86 1015.00 1015.99 1017.07 1018.11 1018.33 1019.56 1020.55 1021.25 1021.77 1022.10 1022.59 1022.86 1023.89 1024.43
1014.04 1012.28 1010.91 1008.82 1007.76 1007.53 1006.62 1005.78 1005.09 1005.01 1004.87 1004.38 1004.12 1004.24 1005.08 1006.19 1007.54 1008.16 1008.58 1008.68 1008.61 1008.79 1008.91 1009.29 1009.84 1010.51 1011.54 1012.44 1013.41 1014.34 1015.23 1016.33 1017.16 1017.81 1018.52 1019.49 1020.23 1021.10 1021.75 1022.50 1023.20 1024.06 1024.39 1024.86
1013.39 1012.25 1010.49 1007.78 1007.74 1006.97 1006.34 1004.96 1004.61 1004.58 1004.37 1004.00 1004.51 1005.24 1006.07 1007.62 1008.77 1009.17 1009.45 1009.10 1009.04 1009.34 1009.31 1009.62 1010.25 1011.08 1012.02 1012.91 1013.69 1014.47 1015.45 1016.22 1017.13 1017.64 1018.43 1019.50 1020.51 1021.27 1022.12 1023.09 1023.88 1024.47 1025.07 1025.42
1012.57 1011.77 1009.87 1007.99 1007.52 1007.03 1006.33 1005.59 1005.46 1005.62 1004.24 1004.30 1005.25 1006.11 1007.12 1008.83 1010.02 1010.74 1010.27 1009.79 1009.52 1009.59 1009.40 1009.96 1010.64 1011.67 1012.65 1013.28 1014.13 1015.10 1015.89 1016.80 1017.49 1018.27 1019.22 1020.21 1020.94 1021.92 1022.71 1023.54 1024.10 1024.73 1025.47 1025.78
1011.49 1010.76 1009.29 1008.12 1007.32 1006.78 1006.37 1006.87 1005.99 1006.00 1005.74 1005.62 1006.69 1007.51 1008.62 1009.93 1010.85 1011.30 1011.26 1010.26 1009.93 1010.01 1010.37 1010.68 1011.20 1012.12 1012.99 1013.91 1014.54 1015.40 1016.22 1017.15 1018.04 1019.18 1020.16 1020.99 1021.53 1022.23 1022.87 1023.54 1024.02 1025.01 1025.51 1025.96
1010.11 1008.92 1008.11 1007.30 1007.34 1007.23 1006.88 1006.53 1006.67 1006.79 1006.66 1006.04 1007.26 1008.87 1009.89 1010.68 1011.33 1011.58 1011.51 1010.29 1010.28 1010.68 1011.07 1011.42 1011.85 1012.33 1013.13 1014.10 1014.89 1015.79 1016.52 1017.55 1018.46 1019.68 1020.70 1021.26 1021.71 1022.29 1023.02 1023.62 1024.09 1024.90 1025.32 1025.75
1010.17 1009.06 1008.31 1007.71 1007.47 1007.36 1007.04 1006.68 1006.09 1006.37 1006.39 1006.59 1008.41 1009.66 1010.30 1010.98 1011.49 1011.58 1011.42 1010.50 1010.57 1011.19 1011.77 1012.26 1012.77 1013.10 1013.38 1014.25 1015.08 1016.18 1016.84 1017.82 1018.87 1019.44 1020.29 1021.17 1021.83 1022.44 1023.00 1023.20 1023.86 1024.03 1024.38 1025.20
1009.15 1008.44 1008.49 1007.81 1007.63 1007.47 1007.87 1007.45 1006.53 1006.01 1006.24 1006.76 1008.47 1009.28 1009.37 1010.32 1011.01 1011.21 1011.22 1011.01 1010.90 1011.56 1012.33 1012.93 1013.47 1014.07 1014.39 1014.55 1015.46 1016.46 1017.16 1017.96 1019.11 1019.83 1020.54 1021.14 1021.51 1021.91 1022.45 1022.97 1023.19 1023.27 1023.77 1024.38
1008.42 1009.13 1008.70 1008.05 1008.26 1008.12 1007.86 1007.47 1006.13 1005.54 1005.90 1007.15 1007.84 1008.35 1009.07 1009.88 1010.29 1010.61 1011.07 1011.13 1011.32 1012.01 1012.79 1013.52 1013.89 1014.44 1015.06 1015.17 1015.39 1016.14 1017.35 1018.30 1018.95 1019.52 1020.47 1020.88 1021.33 1022.11 1022.78 1023.33 1023.53 1023.70 1023.74 1024.16
1008.71 1009.02 1008.70 1008.42 1008.31 1007.94 1007.77 1006.99 1005.92 1005.83 1005.97 1006.41 1007.57 1008.28 1008.99 1009.74 1010.32 1011.00 1010.99 1011.37 1012.05 1012.69 1013.30 1013.86 1014.24 1014.65 1015.15 1015.52 1015.63 1016.08 1016.90 1018.13 1019.13 1019.57 1020.09 1020.61 1021.24 1022.03 1023.13 1024.24 1024.71 1024.81 1024.92 1025.73
1008.36 1008.39 1008.12 1007.96 1007.58 1007.49 1007.12 1006.16 1006.17 1005.84 1006.51 1007.19 1007.68 1008.69 1009.46 1009.86 1010.36 1010.59 1011.09 1011.77 1012.33 1013.11 1013.78 1014.13 1014.45 1014.85 1015.31 1015.72 1016.05 1016.49 1017.17 1018.21 1018.85 1019.34 1019.90 1020.43 1021.14 1021.93 1023.06 1024.06 1024.68 1025.50 1026.00 1026.21
1008.04 1007.89 1007.46 1007.56 1007.46 1007.33 1005.73 1005.32 1005.67 1006.05 1006.94 1007.86 1008.49 1008.96 1009.48 1009.83 1010.47 1011.25 1011.93 1012.49 1013.10 1013.41 1013.96 1014.42 1014.80 1015.16 1015.62 1015.99 1016.25 1016.76 1017.29 1018.09 1018.73 1019.44 1020.01 1020.61 1021.25 1022.03 1022.83 1023.65 1024.56 1025.06 1025.87 1026.73
1007.05 1006.73 1006.23 1006.96 1006.98 1006.31 1005.43 1005.35 1005.71 1006.00 1007.33 1008.42 1008.85 1009.33 1010.03 1010.86 1011.58 1012.32 1012.90 1013.40 1013.63 1013.78 1014.17 1014.59 1015.04 1015.50 1015.94 1016.26 1016.66 1017.23 1017.78 1018.36 1018.91 1019.56 1020.25 1020.80 1021.39 1022.07 1022.89 1023.47 1023.91 1024.51 1025.17 1025.76
1005.01 1005.02 1004.98 1005.17 1005.29 1005.53 1005.55 1005.56 1005.95 1006.46 1007.68 1008.80 1009.48 1010.50 1010.93 1011.46 1012.08 1012.85 1013.29 1013.71 1014.04 1014.30 1014.67 1015.03 1015.43 1015.92 1016.31 1016.68 1017.02 1017.49 1018.09 1018.75 1019.24 1019.79 1020.33 1020.92 1021.50 1022.05 1022.53 1022.89 1023.33 1023.96 1024.47 1025.37
1004.82 1004.36 1004.43 1004.70 1004.86 1005.03 1005.50 1006.26 1006.89 1007.52 1008.66 1009.69 1010.65 1011.43 1011.93 1012.17 1012.82 1013.60 1013.88 1014.17 1014.50 1014.83 1015.12 1015.48 1015.93 1016.35 1016.74 1017.10 1017.34 1017.82 1018.42 1018.95 1019.45 1019.88 1020.36 1020.93 1021.36 1021.79 1022.26 1022.67 1023.25 1023.84 1024.40 1025.41
1004.74 1004.41 1004.55 1005.00 1004.99 1005.42 1006.15 1007.18 1007.99 1008.95 1010.25 1010.96 1011.68 1012.20 1012.58 1012.95 1013.79 1014.22 1014.38 1014.56 1014.82 1015.10 1015.64 1016.00 1016.43 1016.70 1017.07 1017.44 1017.77 1018.20 1018.61 1019.06 1019.52 1020.02 1020.49 1021.01 1021.44 1021.88 1022.44 1022.96 1023.45 1023.96 1024.69 1025.56
1004.97 1004.78 1004.97 1005.70 1006.48 1006.73 1007.65 1008.77 1009.44 1010.26 1011.19 1011.90 1012.35 1012.74 1013.09 1013.94 1014.47 1014.58 1014.74 1014.99 1015.30 1015.28 1015.84 1016.35 1016.63 1016.93 1017.36 1017.87 1018.07 1018.35 1018.80 1019.22 1019.63 1020.12 1020.64 1021.13 1021.63 1022.17 1022.61 1023.00 1023.59 1024.05 1024.48 1025.34
1006.42 1006.80 1007.20 1008.10 1008.66 1008.62 1009.14 1009.79 1010.43 1011.13 1011.96 1012.46 1012.71 1013.04 1013.66 1014.53 1014.80 1014.93 1015.10 1015.13 1015.90 1016.08 1016.26 1016.68 1016.77 1017.13 1017.56 1017.93 1018.17 1018.55 1018.98 1019.36 1019.76 1020.24 1020.79 1021.21 1021.67 1022.06 1022.45 1023.03 1023.63 1023.93 1024.40 1025.09
1008.74 1008.89 1009.15 1009.26 1009.46 1009.83 1010.33 1010.88 1011.19 1011.84 1012.46 1012.92 1013.22 1013.57 1014.19 1014.76 1015.07 1015.32 1015.43 1015.23 1016.07 1016.45 1016.62 1016.84 1017.05 1017.40 1017.68 1018.11 1018.28 1018.78 1019.16 1019.46 1019.80 1020.26 1020.65 1021.00 1021.41 1021.79 1022.23 1022.78 1023.27 1023.76 1024.31 1024.85
1009.54 1009.69 1009.72 1009.87 1010.27 1010.65 1011.13 1011.66 1012.09 1012.51 1012.95 1013.34 1013.63 1013.98 1014.19 1014.52 1014.62 1014.76 1015.05 1015.79 1016.24 1016.59 1016.69 1016.98 1017.34 1017.66 1018.02 1018.24 1018.56 1018.90 1019.21 1019.52 1019.87 1020.23 1020.59 1021.01 1021.34 1021.74 1022.16 1022.71 1023.23 1023.73 1024.20 1024.70
1009.93 1010.06 1010.24 1010.49 1010.83 1011.01 1011.54 1012.23 1012.56 1012.99 1013.36 1013.73 1013.99 1014.31 1014.44 1014.52 1014.96 1015.00 1015.52 1016.14 1016.59 1016.97 1017.07 1017.46 1017.75 1018.10 1018.34 1018.41 1018.67 1018.96 1019.28 1019.58 1019.92 1020.37 1020.74 1021.15 1021.48 1021.85 1022.22 1022.66 1023.14 1023.62 1024.10 1024.61
1010.19 1010.49 1010.67 1010.59 1010.49 1010.88 1011.70 1012.24 1012.69 1013.14 1013.46 1013.76 1014.34 1014.75 1014.69 1014.85 1015.15 1015.68 1016.10 1016.66 1017.09 1017.19 1017.57 1017.96 1018.17 1018.36 1018.37 1018.58 1018.83 1019.09 1019.41 1019.75 1020.13 1020.52 1020.94 1021.27 1021.73 1022.14 1022.55 1022.99 1023.40 1023.79 1024.21 1024.66
1009.96 1010.04 1010.26 1010.35 1010.59 1011.06 1011.57 1012.11 1012.42 1012.99 1013.41 1013.97 1014.50 1014.89 1015.22 1015.39 1015.81 1016.23 1016.59 1016.91 1017.17 1017.57 1017.88 1018.24 1018.36 1018.48 1018.64 1018.87 1019.14 1019.41 1019.73 1020.13 1020.50 1020.79 1021.13 1021.55 1021.96 1022.33 1022.69 1023.08 1023.47 1023.86 1024.26 1024.72
1009.94 1010.20 1010.43 1010.70 1010.94 1011.28 1011.74 1012.08 1012.63 1013.10 1013.62 1014.00 1014.47 1015.07 1015.45 1015.78 1016.09 1016.44 1016.80 1017.14 1017.43 1017.76 1018.08 1018.29 1018.56 1018.74 1018.94 1019.24 1019.50 1019.77 1020.08 1020.40 1020.73 1021.11 1021.43 1021.78 1022.16 1022.50 1022.91 1023.29 1023.66 1024.10 1024.49 1024.93
Wind_Speed
18 18 18 19 20 23 22 21 21 22 24 23 22 24 23 20 15 16 17 14 9 13 12 10 7 8 9 11 12 14 16 13 13 13 14 13 12 11 9 8 8 9 9 8
15 14 15 18 24 25 22 24 23 24 26 23 23 22 20 17 17 17 17 17 11 10 11 9 7 7 9 11 13 12 14 15 12 13 14 13 12 11 9 9 8 8 9 8
19 13 13 14 22 23 24 23 21 21 24 23 24 19 15 18 15 16 13 13 12 12 10 8 7 8 10 12 12 11 13 13 14 13 15 13 12 11 11 9 8 9 9 9
16 14 18 18 23 24 23 23 23 23 20 21 19 17 14 13 10 10 13 14 13 11 8 6 3 4 5 9 11 12 11 13 12 12 14 12 11 10 9 7 6 7 6 10
10 12 16 25 19 16 20 21 22 19 21 22 18 10 11 6 5 6 9 10 10 11 11 8 6 8 8 9 10 13 14 14 14 14 14 14 13 11 9 10 10 6 3 10
14 17 18 22 19 19 14 18 22 20 22 18 8 7 6 3 5 7 8 7 9 11 11 7 6 10 12 12 13 14 14 14 13 13 14 13 13 11 10 9 9 9 9 8
16 17 19 23 20 18 18 13 11 23 7 5 6 6 10 7 6 6 9 9 8 9 10 5 9 10 10 11 11 10 12 12 12 12 13 13 12 10 11 10 10 9 10 10
15 19 20 16 18 13 12 13 13 10 19 4 6 6 3 2 3 5 8 8 8 6 5 3 9 10 8 9 9 12 13 13 13 13 10 10 13 11 11 10 11 11 11 9
16 13 14 8 7 8 14 11 14 13 11 15 6 1 3 3 2 3 6 6 6 7 6 3 5 9 10 10 14 14 14 15 15 13 12 12 12 11 10 9 10 9 8 8
15 16 20 21 15 18 19 22 18 15 14 6 3 3 2 1 3 3 4 7 6 5 4 3 3 6 10 13 13 13 14 15 13 14 14 12 9 10 9 9 9 9 9 8
19 19 18 22 19 15 18 24 22 17 11 7 8 6 5 7 6 3 3 4 4 3 4 5 6 8 10 13 14 14 14 14 12 10 11 11 9 9 9 8 8 9 8 8
18 17 19 18 21 20 19 20 21 11 11 7 5 5 4 2 2 1 1 3 3 4 5 5 7 8 9 11 14 15 14 11 10 10 10 9 9 8 13 12 11 10 9 8
22 22 23 21 23 23 20 20 18 11 8 5 5 3 1 2 2 2 2 4 4 3 6 6 6 7 8 9 12 14 14 13 10 11 10 10 10 9 8 8 11 12 14 17
18 16 19 22 17 16 19 19 9 6 4 2 1 4 3 2 3 3 4 3 4 5 4 5 6 7 7 8 10 10 12 15 10 10 9 8 8 8 9 9 9 7 9 11
23 23 25 22 12 24 14 9 6 9 5 2 4 4 4 3 4 4 3 4 4 5 5 5 5 6 7 7 9 11 11 9 8 8 8 9 8 9 8 9 9 9 9 11
18 21 17 13 16 16 12 7 8 8 6 5 5 5 6 6 5 4 5 4 3 4 4 4 5 6 6 7 9 9 9 10 10 9 9 9 9 9 9 9 10 9 9 10
13 13 12 9 10 11 12 9 8 6 6 6 7 7 6 6 4 4 5 4 4 5 5 5 7 7 8 9 9 7 7 8 9 8 8 9 9 10 9 8 8 8 9 10
13 12 8 9 9 8 5 3 3 5 7 8 8 7 6 5 5 3 4 5 6 6 5 6 7 8 8 7 7 7 8 8 8 8 8 9 8 8 8 7 8 8 8 10
15 14 8 8 6 4 5 6 6 9 9 8 8 7 6 6 4 4 5 5 5 6 6 7 8 9 9 7 9 7 8 8 8 7 7 9 7 7 7 7 8 8 9 9
12 11 11 4 3 6 9 8 10 9 8 9 9 8 9 6 5 5 4 6 6 5 7 9 9 8 9 9 7 7 8 9 8 8 7 8 8 7 7 8 7 7 8 8
7 9 9 7 6 10 9 8 10 9 8 6 7 8 8 6 5 5 5 4 3 4 7 9 6 7 7 8 6 7 7 8 8 8 9 8 8 8 8 8 7 7 7 7
5 6 7 8 9 10 8 8 9 9 8 7 8 9 9 7 5 3 3 4 5 5 6 5 5 8 8 7 6 6 7 7 7 7 7 7 7 7 7 7 7 7 7 8
5 7 8 8 8 9 9 8 7 7 8 7 8 8 5 5 5 5 5 5 6 4 4 4 8 9 11 5 6 6 7 7 7 6 6 6 6 6 6 7 6 6 6 6
5 6 8 8 9 9 9 7 7 7 8 8 7 4 5 4 2 4 7 8 10 4 5 6 7 9 8 5 5 6 6 6 6 6 6 5 5 5 6 6 6 6 6 7
6 7 7 7 8 6 7 7 8 7 7 7 7 5 4 4 1 4 5 6 8 6 6 7 8 8 4 5 5 6 6 6 6 6 6 6 5 5 5 5 5 6 5 5
7 5 5 4 3 5 5 5 5 5 5 6 5 4 3 2 5 5 5 7 6 7 6 6 6 4 5 6 6 6 6 6 6 5 6 6 5 5 5 5 5 5 5 5
4 2 3 3 3 3 4 5 5 5 4 5 6 5 4 4 5 5 6 6 5 5 5 5 5 5 5 6 6 6 6 6 6 6 5 5 5 4 5 5 5 5 5 5
Wind_Direction
265 270 280 284 277 267 263 267 261 274 272 277 290 293 296 308 302 301 300 306 317 320 313 294 262 234 222 203 198 198 188 176 159 143 146 138 143 149 144 139 130 128 126 132
264 257 253 257 259 264 271 270 275 275 278 285 289 289 290 293 300 307 306 317 326 308 301 292 279 230 209 203 199 189 171 168 160 151 133 143 143 133 140 138 137 135 124 131
271 278 256 255 252 254 257 256 251 248 252 261 265 269 288 301 308 303 330 335 316 314 285 268 240 205 214 196 187 174 165 165 158 147 133 135 130 139 144 152 147 122 134 130
264 280 260 260 260 268 280 274 269 261 267 268 280 285 283 287 307 338 334 325 323 323 298 257 227 218 206 185 163 164 157 140 135 139 131 132 138 136 137 129 103 92 127 128
242 256 269 275 272 284 283 282 273 274 280 274 283 303 288 70 34 341 331 322 318 310 301 257 194 154 129 144 149 140 140 143 151 145 137 142 143 144 134 121 115 127 121 130
240 254 260 268 279 279 297 272 260 256 255 260 279 258 273 58 350 348 325 324 327 309 288 279 190 155 147 156 154 157 159 150 144 146 141 135 138 134 125 132 139 149 124 121
234 248 261 270 283 283 262 273 341 333 297 278 252 296 356 27 3 332 318 320 336 338 308 167 162 145 161 156 164 145 137 138 136 128 127 129 131 135 137 142 138 138 140 137
230 244 260 263 284 275 313 316 306 317 318 233 275 287 48 16 326 332 323 323 353 14 10 142 158 152 152 158 136 137 135 134 123 120 123 137 135 135 143 144 143 152 148 144
265 266 270 289 278 259 284 299 300 283 282 256 272 340 324 300 304 309 308 327 13 16 22 27 151 152 144 135 140 140 135 129 127 128 139 137 137 144 147 155 156 157 155 148
255 262 269 275 313 304 298 295 271 272 268 334 45 213 193 210 257 274 309 338 18 22 48 76 111 134 130 140 141 141 134 132 136 139 138 143 153 157 161 168 169 170 160 158
272 269 285 284 288 305 314 316 292 261 273 284 178 217 204 195 214 216 238 305 12 67 90 101 109 129 141 137 137 136 137 139 138 135 140 150 158 164 169 174 176 171 167 158
262 269 271 285 300 300 297 279 288 253 234 220 253 204 215 221 244 228 291 348 32 91 125 126 134 139 148 147 146 143 143 143 141 143 151 156 148 123 65 89 70 68 80 136
268 273 274 280 277 276 280 274 279 256 277 256 198 251 183 161 154 114 76 66 66 69 121 139 139 142 154 159 157 153 147 143 145 147 154 161 158 148 136 98 99 95 97 108
264 271 276 265 289 292 278 259 247 204 200 258 123 109 105 134 119 62 48 60 101 119 126 133 145 153 149 149 147 145 139 145 153 153 164 156 157 150 146 150 145 139 130 128
255 255 261 266 265 277 248 214 203 215 166 162 110 131 122 63 33 24 71 96 119 124 126 141 144 142 147 151 146 141 136 146 148 149 154 154 152 148 151 155 159 152 147 150
264 259 255 244 241 247 257 231 244 252 163 181 163 120 74 63 65 86 93 112 134 128 132 130 130 132 127 127 126 130 139 140 143 147 149 154 152 151 159 166 159 164 164 159
293 244 232 236 235 231 251 241 253 239 149 172 122 128 135 103 98 91 85 81 75 101 115 135 126 132 133 134 137 134 131 139 144 143 151 149 153 163 165 166 158 168 158 155
274 260 242 232 237 230 220 218 196 146 156 137 111 93 87 95 89 118 98 93 98 98 96 106 124 130 135 139 135 129 141 147 149 151 151 157 160 161 166 164 161 170 152 154
255 255 234 259 254 209 159 161 137 104 110 120 120 120 107 97 121 123 117 116 122 127 113 119 121 139 141 123 130 138 142 145 144 145 149 148 154 149 153 164 167 169 149 156
249 243 230 137 34 136 104 96 116 107 119 127 125 120 107 114 130 122 129 85 45 90 128 133 153 143 138 139 151 141 148 151 150 149 146 147 150 156 168 168 164 178 164 161
48 55 73 89 81 80 97 115 127 123 128 126 128 120 117 125 126 127 151 142 99 123 130 153 150 143 148 155 165 144 150 156 153 152 156 159 160 171 169 166 178 178 173 172
90 93 103 106 102 99 98 110 110 119 123 116 106 115 124 127 127 92 23 113 132 150 150 163 153 156 152 168 139 144 151 157 155 156 163 167 171 173 170 171 176 178 175 180
108 113 109 106 108 103 97 101 106 119 123 123 125 131 142 150 176 167 147 121 135 151 156 144 126 129 147 177 144 155 159 160 160 164 162 167 168 174 171 172 177 175 175 176
116 109 109 115 126 123 115 120 117 112 115 121 123 109 153 145 108 86 87 78 106 148 114 125 138 149 173 141 150 152 157 161 155 153 149 154 158 161 168 166 172 170 175 178
130 129 133 146 135 120 127 132 127 123 132 121 135 154 168 97 114 107 121 104 133 129 122 135 146 156 145 145 148 150 150 148 145 144 147 159 153 159 161 160 178 175 173 177
155 155 156 158 123 143 150 167 146 146 145 143 150 136 105 109 108 124 132 138 134 127 134 146 153 151 132 132 133 133 134 127 142 147 152 148 154 162 164 163 171 175 177 182
177 139 157 164 163 163 180 173 159 165 162 169 162 160 150 147 142 143 144 146 144 132 141 140 148 144 134 138 142 139 135 145 141 144 146 147 156 157 159 169 167 175 171 170